Tracking 35280 objects as of 7-Sep-2026
HD Live streaming from Space Station
objects crossing your sky now

STARLINK-32759

Track STARLINK-32759 now!
10-day predictions
STARLINK-32759 is classified as:


NORAD ID: 62751
Int'l Code: 2025-014S
Launch date: January 21, 2025
Source: United States (US)
Launch site: AIR FORCE EASTERN TEST RANGE (AFETR)
Your satellite tracking list
Your tracking list is empty




NASA's NSSDC Master Catalog

Two Line Element Set (TLE):
1 62751U 25014S   26250.26294270  .00007981  00000-0  29914-3 0  9993
2 62751  42.9987 212.6798 0000774 266.1293  93.9470 15.27587488 90987
Source of the keplerian elements: AFSPC